IRIDIUM 40 [-]

Last updated on Mon Sep 17 2018 17:46:26 GMT+0100 (British Summer Time)

1 25041U 97069C 18260.53550662 .00884617 -13836-5 57739-3 0 9997 2 25041 86.3526 144.2472 0035696 256.8796 102.8514 16.15692638 98162

Satellite not in orbit